Flight Track Log - Related Links

Times and Time Zones

All times are in EDT time to prevent confusion due to time zone crossing. See the N75746 flight status page for this flight to view local times or setup timezone preferences in your user account.

Time Position Orientation Groundspeed Altitude Reporting Facility
EDT Latitude Longitude Course Direction KTS MPH feet Rate Location/Type
Fri 10:14:25 AM 40.0761 -83.0803 273° West 67 77 1,200  Level Indianapolis Center
Fri 10:15:19 AM 40.0767 -83.0969 272° West 63 72 1,800 545 Climbing Indianapolis Center
Fri 10:16:15 AM 40.0756 -83.1194 266° West 63 72 2,200 508 Climbing Indianapolis Center
Fri 10:17:17 AM 40.0722 -83.1419 259° West 65 75 2,800 397 Climbing Indianapolis Center
Fri 10:18:16 AM 40.0958 -83.1383 North 90 104 3,000 50 Climbing Indianapolis Center
Fri 10:19:17 AM 40.1056 -83.1017 71° East 114 131 2,900 -47 Descending Indianapolis Center
Fri 10:20:23 AM 40.1111 -83.0642 79° East 97 112 2,900 50 Level Indianapolis Center
Fri 10:21:18 AM 40.1142 -83.0347 82° East 94 108 3,000 52 Climbing Indianapolis Center
Fri 10:22:19 AM 40.1197 -83.0000 78° East 98 113 3,000 -49 Level Indianapolis Center
Fri 10:23:20 AM 40.1353 -82.9669 58° Northeast 99 114 2,900 -45 Descending Indianapolis Center
Fri 10:24:31 AM 40.1503 -82.9328 60° Northeast 99 114 2,900 -45 Level Indianapolis Center
Fri 10:25:33 AM 40.1619 -82.9011 64° Northeast 97 112 2,800 54 Descending Indianapolis Center
Fri 10:26:22 AM 40.1633 -82.8700 87° East 97 112 3,000 109 Climbing Indianapolis Center
Fri 10:27:23 AM 40.1628 -82.8317 91° East 107 123 3,000  Level Indianapolis Center
Fri 10:28:36 AM 40.1903 -82.8086 33° Northeast 96 110 3,000 -45 Level Indianapolis Center
Fri 10:29:37 AM 40.2097 -82.8228 331° Northwest 93 107 2,900 -50 Descending Indianapolis Center
Fri 10:30:37 AM 40.2133 -82.8533 279° West 80 92 2,900 50 Level Indianapolis Center
Fri 10:31:38 AM 40.2150 -82.8811 275° West 78 90 3,000 55 Climbing Indianapolis Center
Fri 10:32:27 AM 40.2208 -82.9067 287° West 85 98 3,000 -218 Level Indianapolis Center
Fri 10:33:28 AM 40.2286 -82.9353 290° West 88 101 2,600 -141 Descending Indianapolis Center
Fri 10:34:35 AM 40.2383 -82.9669 292° West 80 92 2,700 47 Climbing Indianapolis Center
Fri 10:35:36 AM 40.2417 -82.9978 278° West 82 94 2,700 -148 Level Indianapolis Center
Fri 10:36:37 AM 40.2494 -83.0264 290° West 85 98 2,400 -375 Descending Indianapolis Center
Fri 10:37:44 AM 40.2633 -83.0561 301° West 86 99 1,900 -425 Descending Indianapolis Center
Fri 10:38:44 AM 40.2733 -83.0850 294° West 82 94 1,500 -198 Descending Indianapolis Center
Fri 10:39:45 AM 40.2792 -83.1108 286° West 76 87 1,500 295 Level Indianapolis Center
Fri 10:40:46 AM 40.2767 -83.1378 263° West 76 87 2,100 590 Climbing Indianapolis Center
Fri 10:41:47 AM 40.2803 -83.1658 280° West 73 84 2,700 410 Climbing Indianapolis Center
Fri 10:42:43 AM 40.2581 -83.1567 163° South 113 130 2,900 98 Climbing Indianapolis Center
Fri 10:43:49 AM 40.2408 -83.1156 119° Southeast 114 131 2,900 94 Level Indianapolis Center
Fri 10:44:50 AM 40.2269 -83.0858 121° Southeast 104 120 3,100 52 Climbing Indianapolis Center
Fri 10:45:45 AM 40.2086 -83.0581 131° Southeast 108 124 3,000 -103 Descending Indianapolis Center
Fri 10:46:46 AM 40.1975 -83.0208 111° Southeast 113 130 2,900 -52 Descending Indianapolis Center
Fri 10:47:40 AM 40.1858 -82.9886 115° Southeast 109 125 2,900 66 Level Indianapolis Center
Fri 10:48:17 AM 40.1833 -82.9689 99° East 108 124 3,000 121 Climbing Indianapolis Center
Fri 10:49:19 AM 40.1736 -82.9339 110° East 105 121 3,100 -48 Climbing Indianapolis Center
Fri 10:50:21 AM 40.1636 -82.8981 110° East 103 119 2,900 -48 Descending Indianapolis Center
Fri 10:51:23 AM 40.1500 -82.8575 114° Southeast 103 119 3,000 48 Climbing Indianapolis Center
Fri 10:52:25 AM 40.1308 -82.8358 139° Southeast 106 122 3,000  Level Indianapolis Center
Fri 10:53:27 AM 40.1042 -82.8414 189° South 98 113 3,000  Level Indianapolis Center
Fri 10:54:29 AM 40.0803 -82.8517 198° South 96 110 3,000 -146 Level Indianapolis Center
Fri 10:55:30 AM 40.0875 -82.8872 285° West 91 105 2,700 -244 Descending Indianapolis Center
Fri 10:56:32 AM 40.0856 -82.9114 264° West 85 98 2,500 -97 Descending Indianapolis Center
Fri 10:57:34 AM 40.0833 -82.9411 264° West 83 96 2,500 -48 Level Indianapolis Center
Fri 10:58:36 AM 40.0811 -82.9750 265° West 83 96 2,400 -307 Descending Indianapolis Center
Fri 10:59:51 AM 40.0789 -83.0097 265° West 81 93 1,800 -480 Descending Indianapolis Center

Login

Don't have an account? Register now (free) for customized features, flight alerts, and more!